sat.trackr.live / text

‹ back to catalog

ROADS 2

NORAD 64549 · 2025-135X

PAYLOAD ACTIVE UNKNOWN

§ Identity

Operator
Country
US
Launch date
2025-06-23
Launch site
AFWTR
Launch vehicle
Mass (kg)
RCS (m²)

External: N2YO · Heavens-Above · Gunter

§ Orbital elements

Epoch: 2026-05-24T19:19:39.781920Z

Period
94.52 min
Inclination
97.4758°
Eccentricity
0.0002127
Mean motion
15.23522604 rev/d
Perigee alt
493.8 km
Apogee alt
496.7 km
Semi-major
6,873.4 km
B*
2.6784e-4
RAAN
261.0750°
Arg perigee
140.2145°
Mean anomaly
219.9248°
Rev number
5,135

§ Raw data

ROADS 21 64549U 25135X   26144.80532155  .00006325  00000+0  26784-3 0  99952 64549  97.4758 261.0750 0002127 140.2145 219.9248 15.23522604 51359

JSON: /api/v1/satellites/64549 · /tle

For live sub-satellite position, see the globe view (requires WebGL).

§ Visibility from observer

Set your observer location to see the next 7 days of passes ≥ 10°. The values pass through the URL so the page stays shareable.

No JS? Fill the form by hand. The geolocation button needs JavaScript.

§ Radio — SatNOGS DB

ModeDescriptionDownlinkUplink
QPSK Mode S - QPSK 1Msps 2.402 GHz
FSK AX.100 Mode 5 Mode U - GFSK9k6 435.400 MHz
FSK AX.100 Mode 5 Mode V - GFSK19k2 - Backup 145.900 MHz
FSK AX.100 Mode 5 Mode U - GFSK4k8 (inactive) 435.400 MHz
FSK AX.100 Mode 5 Mode U/U - GMSK1k2 - Digipeater (inactive) 435.400 MHz 435.400 MHz
FSK AX.100 Mode 5 Mode V/V - GMSK1k2 - Digipeater (inactive) 145.900 MHz 145.900 MHz

6 transmitters · refreshed weekly from db.satnogs.org